sat.trackr.live / text

‹ back to catalog

STARLINK-30346

NORAD 57704 · 2023-129G

PAYLOAD ACTIVE UNKNOWN

§ Identity

Operator
Country
US
Launch date
2023-08-27
Launch site
AFETR
Launch vehicle
Mass (kg)
RCS (m²)

Purposes: comms

External: N2YO · Heavens-Above · Gunter

§ Orbital elements

Epoch: 2026-05-25T02:45:28.395072Z

Period
94.27 min
Inclination
43.0073°
Eccentricity
0.0001801
Mean motion
15.27591041 rev/d
Perigee alt
481.8 km
Apogee alt
484.3 km
Semi-major
6,861.2 km
B*
2.1289e-5
RAAN
46.0583°
Arg perigee
265.7266°
Mean anomaly
94.3380°
Rev number
15,223

§ Raw data

STARLINK-303461 57704U 23129G   26145.11491198  .00000324  00000+0  21289-4 0  99962 57704  43.0073  46.0583 0001801 265.7266  94.3380 15.27591041152237

JSON: /api/v1/satellites/57704 · /tle

For live sub-satellite position, see the globe view (requires WebGL).

§ Visibility from observer

Set your observer location to see the next 7 days of passes ≥ 10°. The values pass through the URL so the page stays shareable.

No JS? Fill the form by hand. The geolocation button needs JavaScript.